Regional Weather Roundup
Issued by NWS Cleveland, OH

Home | Current Version | Previous Version | Text Only | Print | Product List | Glossary Off
Versions: 1 2 3 4 5 6 7 8 9 10 11 12 13 14 15 16 17 18 19 20 21 22 23 24 25 26 27 28 29 30 31 32 33 34 35 36 37 38 39 40 41 42 43 44 45 46 47 48 49 50

000
ASUS41 KCLE 232000
RWRCLE
OHIO REGIONAL WEATHER ROUNDUP
NATIONAL WEATHER SERVICE WILMINGTON, OH
400 PM EDT SUN APR 23 2017

NOTE: "FAIR" INDICATES FEW OR NO CLOUDS BELOW 12,000 FEET WITH NO
SIGNIFICANT WEATHER AND/OR OBSTRUCTIONS TO VISIBILITY.

OHZ001>008-015>018-024>027-034-035-043-044-232100-
   NORTHWEST OHIO

CITY           SKY/WX    TMP DP  RH WIND       PRES   REMARKS
DEFIANCE       FAIR      65  29  25 MISG      30.06F
FINDLAY        FAIR      68  32  26 NE12      30.03F
TOLEDO EXPRESS FAIR      65  26  23 VRB5      30.07S
TOLEDO EXEC    FAIR      66  34  30 N8        30.08F
LIMA           FAIR      67  30  25 NE12      30.02F
$$

OHZ009>014-019>023-028>033-038-089-232100-
   NORTHEAST OHIO

CITY           SKY/WX    TMP DP  RH WIND       PRES   REMARKS
CLE-HOPKINS    FAIR      62  37  39 NE10      30.09S
CLE-LAKEFRONT  FAIR      53  43  68 NE9       30.07F
CUY CO. ARPT   MOSUNNY   61  37  41 N12       30.08S
LORAIN-ELYRIA  FAIR      62  34  35 N12       30.06F
ASHTABULA      FAIR      63  37  38 N8        30.06F
AKRON-CANTON   PTSUNNY   66  33  29 VRB7      30.04F
WOOSTER        NOT AVBL
MANSFIELD      FAIR      67  31  26 NE12      30.04F
YOUNGSTOWN     FAIR      68  29  23 VRB3      30.04S
$$

OHZ042-051>053-060>062-070>072-077>081-232100-
  SOUTHWEST OHIO

CITY           SKY/WX    TMP DP  RH WIND       PRES   REMARKS
CINC-COVINGTON PTSUNNY   62  36  37 NE16      29.97F
CINC-LUNKEN    FAIR      63  43  48 NE12      29.97F
HAMILTON       FAIR      65  38  36 NE13      29.99F
DAYTON         NOT AVBL
WRIGHT-PAT AFB FAIR      67  29  23 E16       29.98F
DAYTON GENERAL FAIR      65  35  33 NE13      29.96F
WILMINGTON     FAIR      62  38  40 NE13      29.97F
$$

OHZ036-037-039>041-045>050-054>059-063>069-073>076-082>088-232100-
  CENTRAL AND SOUTHEAST OHIO

CITY           SKY/WX    TMP DP  RH WIND       PRES   REMARKS
COLUMBUS       PTSUNNY   68  35  29 E7        29.97F
OSU AIRPORT    FAIR      67  33  28 NE12      29.98F
BOLTON FIELD   SUNNY     66  36  32 E9        29.98F
RICKENBACK AFB NOT AVBL
NEWARK         FAIR      68  34  28 E9        29.98F
MARION         FAIR      68  27  21 E12G17    30.02F
LANCASTER      FAIR      68  34  28 E12       29.98F
ZANESVILLE     FAIR      66  31  27 E9        29.99F
NEW PHILLY     FAIR      69  32  25 E7        30.02F
$$



USA.gov is the U.S. government's official web portal to all federal, state and local government web resources and services.